AO-07
1 07530U 74089B 25348.01164176 -.00000025 00000-0 13230-3 0 9991
2 07530 101.9967 354.2927 0012374 124.2503 295.8911 12.53694183337310


Ligne 0
Le nom commun de l'objetAO-07
Ligne 1
Numéro de catalogue satellite07530U
Désignateur international74089B
Année de lancement74
Numéro de lancement dans l'année089
Object du lancementB
Époque (année)25
Époque (Jour de l'année en UTC)348.01164176
1ère dérivée du mouvement moyen-.00000025
2ème dérivée du mouvement moyen 00000-0
B * Terme de glissement 13230-3
Type de jeu d'éléments0
Numéro d'élément 999
Ligne 2
Numéro de catalogue satellite07530
Inclinaison de l'orbite (degrés)101.9967
Ascension droite du nœud ascendant (degrés)354.2927
Excentricité0012374
Argument du Périgée (degrés)124.2503
Anomalie moyenne (degrés)295.8911
Mouvement moyen (révolutions / jour)12.53694183
Numéro de révolution à l'époque33731
Valeurs déduites
Période Orbitale (en minutes)114.9 min.
Demi-grand axe (en kilomètres)7827.2 Km
Altitude à l‘Apogée (en kilomètres)1465.9 Km
Altitude au Périgée (en kilomètres)1446.5 Km

* Sources des TLE's : Celestrack